#timestamp,LO_Frequency,Hit,StdDev 
1534698015.3,286046998.3,N
1534698035.1,286046998.9,N
1534698055.9,286046998.2,N
1534698075.7,286046998.3,N
1534698095.5,286047001.2,N
1534698115.4,286046998.2,N
1534698135.2,286046998.9,N
1534698155.1,286046998.1,N
1534698156.0,286046998.1,N
1534698175.8,286046998.7,N
1534698195.6,286046998.9,N
1534698215.5,286046998.3,N
1534698235.3,286046998.3,N
1534698255.1,286046998.5,N
1534698275.9,286046999.0,N
1534698295.7,286046999.0,N
1534698315.6,286046999.0,N
1534698335.9,286046999.0,N
1534698355.7,286046999.0,N
1534698375.5,286047000.7,N
1534698395.4,286046998.2,N
1534698415.2,286046998.7,N
1534698435.0,286046998.8,N
1534698436.0,286046998.8,N
1534698455.8,286046999.1,N
1534698475.6,286046998.3,N
1534698495.5,286046996.5,Y
1534698515.3,286047000.7,P
1534698535.1,286047001.0,N
1534698555.9,286046999.9,N
1534698575.7,286047000.2,N
1534698595.6,286047000.4,N
1534698615.4,286046999.8,N
1534698635.2,286047000.4,N
1534698655.1,286046998.6,N
1534698656.0,286046998.6,N
1534698675.3,286046998.2,N
1534698695.1,286046998.3,N
1534698715.8,286047000.5,N
1534698735.7,286047000.9,N
1534698755.5,286046998.2,N
1534698775.4,286047001.2,N
1534698795.2,286046998.3,N
1534698815.0,286046998.3,N
1534698815.9,286046998.3,N
1534698835.8,286047000.7,N
1534698855.6,286046998.1,N
1534698875.4,286047000.7,N
1534698895.3,286046998.5,N
1534698915.1,286046998.3,N
1534698935.9,286046998.1,N
1534698955.7,286046998.5,N
1534698975.5,286046998.9,N
1534698995.4,286046998.7,N
1534699015.2,286046998.5,N
1534699035.0,286046998.7,N
1534699036.0,286046998.7,N
1534699055.8,286046998.7,N
1534699075.6,286046998.6,N
1534699095.5,286046998.9,N
1534699115.3,286046999.0,N
1534699135.1,286046998.5,N
1534699185.9,286046999.4,E
1534699195.8,286046998.9,N
1534699215.7,286046998.7,P
1534699235.5,286046998.4,P
1534699255.3,286047001.1,Y
1534699275.2,286047002.5,P
1534699295.0,286047002.6,N
1534699295.9,286047002.6,N
1534699315.8,286047001.6,N
1534699335.6,286047002.0,N
1534699355.4,286047002.2,N
1534699375.3,286047002.3,N
1534699395.1,286047002.2,N
1534699415.8,286047002.3,N
1534699435.7,286047002.6,N
1534699455.5,286047002.7,N
1534699475.4,286046999.8,N
1534699495.2,286046999.7,N
1534699515.0,286046999.9,N
1534699515.9,286046999.9,N
1534699535.8,286046999.9,N
1534699555.6,286047000.3,N
1534699575.4,286047000.8,N
1534699595.3,286047000.4,N
1534699615.1,286047001.0,N
1534699635.9,286047000.4,N
1534699655.7,286047000.6,N
1534699675.5,286047000.4,N
1534699695.4,286047001.1,N
1534699715.2,286046998.2,N
1534699735.0,286046999.1,N
1534699735.9,286046999.1,N
1534699755.8,286046996.9,N
1534699775.6,286046996.5,N
1534699795.5,286046997.2,N
1534699815.3,286046997.1,N
1534699835.1,286046997.1,N
1534699855.9,286046996.9,N
1534699875.7,286046999.6,N
1534699895.5,286046999.1,N
1534699915.4,286046998.5,N
1534699935.2,286047000.4,N
1534699955.1,286047000.6,N
1534699956.0,286047000.6,N
1534699975.8,286047000.7,N
1534699995.6,286047000.0,N
1534700015.5,286047000.1,N
1534700035.3,286047002.1,N
1534700055.1,286047001.4,N
1534700075.9,286047004.4,N
1534700095.7,286047004.0,N
1534700115.6,286047003.9,N
1534700135.4,286047004.1,N
1534700155.2,286047004.0,N
1534700175.1,286047004.1,N
1534700176.0,286047004.1,N
1534700195.8,286047003.4,N
1534700215.7,286047003.2,N
1534700235.5,286047004.3,N
1534700255.3,286047004.4,N
1534700275.2,286047001.3,N
1534700295.9,286047004.3,N
1534700315.7,286047001.7,N
1534700335.6,286047004.2,N
1534700355.4,286047001.6,N
1534700375.2,286047002.1,N
1534700395.1,286047001.5,N
1534700396.0,286047001.5,N
1534700415.8,286047001.5,N
1534700435.7,286047001.3,N
1534700455.5,286047001.5,N
1534700475.3,286047003.9,N
1534700495.2,286047004.2,N
1534700515.0,286047003.7,N
1534700515.9,286047003.7,N
1534700535.8,286047003.7,N
1534700555.6,286047003.4,N
1534700575.4,286047004.3,Y
1534700595.3,286046998.1,P
1534700615.1,286047000.8,N
1534700635.8,286047000.7,N
1534700655.7,286046998.6,N
1534700675.5,286047000.9,N
1534700695.4,286047000.4,N
1534700715.2,286046999.9,N
1534700735.0,286046999.9,N
1534700735.9,286046999.9,N
1534700755.8,286047000.3,N
1534700775.6,286047002.0,N
1534700795.5,286047002.6,N
1534700815.3,286047002.7,N
1534700835.1,286047000.1,N
1534700855.9,286047000.1,N
1534700875.7,286047000.1,N
1534700895.5,286046999.7,N
1534700915.4,286047000.6,N
1534700935.2,286047002.8,N
1534700955.1,286047002.8,N
1534700956.0,286047002.8,N
1534700975.8,286047002.2,N
1534700995.6,286047002.1,N
1534701015.5,286047002.0,N
1534701035.3,286046999.7,N
1534701055.2,286047001.4,N
1534701075.9,286047002.5,N
1534701095.7,286047001.4,N
1534701115.6,286047001.3,N
1534701135.4,286047001.4,N
1534701155.2,286047001.4,N
1534701175.1,286047001.7,N
1534701176.0,286047001.7,N
1534701195.8,286047002.4,N
1534701215.7,286047004.4,Y
1534701235.5,286047001.5,P
1534701255.3,286047002.4,P
1534701275.2,286047002.7,P
1534701295.0,286047002.6,Y
1534701295.9,286047002.6,P
1534701315.8,286047000.5,N
1534701335.6,286047001.0,N
1534701355.4,286046998.5,N
1534701375.3,286046998.2,N
1534701425.1,286046999.8,E
1534701435.1,286046999.8,N
1534701436.0,286046999.8,P
1534701455.8,286046999.9,P
1534701475.6,286046999.9,N
1534701495.5,286047002.7,Y
1534701515.3,286047002.6,P
1534701535.2,286047001.5,N
1534701555.9,286047002.1,N
1534701575.7,286047002.4,N
1534701595.6,286047001.5,N
